Location: Caltech
(34.1382°N, 118.1253°W)
Time: 10:14:10
(UTC-07:00)

ERBS - Visible Passes

Search period start: 24 May 2015 00:00
Search period end: 03 June 2015 00:00
Orbit: 446 x 472 km, 57.0° (Epoch: 23 May)

Date Brightness Start Highest point End Pass type
(mag) Time Alt. Az. Time Alt. Az. Time Alt. Az.
24 May 4.5 02:59:44 10° NNW 03:02:48 27° NE 03:04:14 21° E visible
24 May 4.7 04:37:15 10° WNW 04:44:45 - S 04:37:26 11° WNW visible
25 May 5.3 02:25:37 10° N 02:26:51 16° N 02:26:51 16° N visible
26 May 5.8 01:51:38 10° N 01:51:55 11° N 01:51:55 11° N visible
01 Jun 5.8 00:01:45 10° N 00:02:04 12° N 00:02:04 12° N visible
01 Jun 5.5 23:27:41 10° N 23:28:26 13° NNE 23:28:26 13° NNE visible
02 Jun 5.3 22:53:52 10° NNE 22:54:50 12° NNE 22:54:50 12° NNE visible
